Flag for U.S.A. Weather past 2 weeks in Arlington, Texas, U.S.A.

Now
53 °F

Fog.


Feels Like: 50 °F
Forecast: 29 / 53 °F
Wind: 9 mph from North

Location: Arlington Municipal Airport

Current Time: Mar 4, 2015 at 6:59:50 AM

Latest Report: Mar 4, 2015 at 5:53 AM


Visibility: 2 mi

Pressure: 29.87 "Hg

Humidity: 89%

Dew point: 50 °F

Location of ArlingtonLocation

Historic Weather in Arlington — Graph

°F

Arlington temperature yesterday

Maximum temperature yesterday: 53 °F (at 4:53 PM)
Minimum temperature yesterday: 41 °F (at 12:53 AM)
Average temperature yesterday: 47 °F

Past Weeks' High & Low Weather Summary

 TemperatureHumidityPressure
High71 °F (Feb 20, 4:53 PM)93% (Mar 3, 12:53 AM)30.57 "Hg (Mar 3, 12:53 AM)
Low26 °F (Feb 27, 9:56 AM)35% (Feb 18, 4:53 PM)29.65 "Hg (Feb 21, 3:53 AM)
Average41 °F72%30.19 "Hg
* Reported Feb 17 5:53 AM — Mar 4 5:53 AM, Arlington, Weather by CustomWeather, © 2015

Note: Actual official high and low records may vary slightly from our data, if they occured in-between our weather recording intervals... More about our weather records

Advertising

Arlington weather history for previous 24 hours

 ConditionsComfort  
Time TempWeatherWind HumidityBarometerVisibility
5:53 AM
Wed, Mar 4
53 °FFog.9 mph89%29.87 "Hg2 mi
4:53 AM53 °FFog.6 mph93%29.85 "Hg1 mi
3:53 AM53 °FFog.6 mph89%29.84 "Hg1 mi
2:53 AM53 °FFog.No wind89%29.84 "Hg1 mi
2:04 AM53 °FFog.No wind89%29.84 "Hg1 mi
1:53 AM53 °FFog.No wind89%29.84 "Hg1 mi
1:00 AM53 °FFog.No wind89%29.85 "Hg1 mi
11:53 PM
Tue, Mar 3
52 °FFog.No wind93%29.86 "Hg1 mi
10:53 PM52 °FFog.3 mph93%29.86 "Hg1 mi
9:53 PM52 °FFog.No wind89%29.86 "Hg4 mi
8:53 PM52 °FFog.No wind89%29.86 "Hg5 mi
7:53 PM53 °FLow clouds.5 mph86%29.85 "Hg7 mi
7:02 PM53 °FLow clouds.5 mph89%29.85 "Hg7 mi
5:53 PM53 °FFog.7 mph89%29.83 "Hg4 mi
4:53 PM53 °FFog.10 mph89%29.82 "Hg5 mi
3:53 PM52 °FFog.8 mph89%29.84 "Hg1 mi
2:53 PM51 °FLight rain. Fog.5 mph92%29.85 "Hg1 mi
1:53 PM51 °FLow clouds.7 mph86%29.87 "Hg8 mi
12:53 PM50 °FLow clouds.3 mph86%29.93 "Hg2 mi
11:53 AM49 °FLight rain. Fog.No wind86%29.97 "Hg2 mi
10:53 AM48 °FLow clouds.3 mph86%29.98 "Hg7 mi
9:53 AM46 °FLight rain. Fog.9 mph86%29.99 "Hg2 mi
8:53 AM45 °FLow clouds.6 mph86%30.00 "Hg7 mi
7:53 AM43 °FFog.7 mph89%29.99 "Hg2 mi
6:53 AM42 °FFog.5 mph89%30.01 "Hg4 mi
Weather by CustomWeather, © 2015

See weather overviewHow to use our weather pages